Location: ??
(34.9170°N, 135.5016°E)
Time: 17:13:22
(UTC+00:00)

Envisat - Pass Details

Date: 29 October 2020
Orbit: 764 x 766 km, 98.1° (Epoch: 30 November)

Event Time Altitude Azimuth Distance (km) Brightness Sun altitude
Rises 20:48:55 0° 13° (NNE) 3,236 6.3 -6.4°
Reaches altitude 10° 20:51:14 10° 15° (NNE) 2,306 5.5 -5.9°
Maximum altitude 20:56:19 80° 102° (ESE) 780 3.2 -4.9°
Drops below altitude 10° 21:01:23 10° 190° (S) 2,291 5.5 -3.9°
Sets 21:03:40 0° 191° (S) 3,212 6.3 -3.5°
